Regional Weather Roundup
Issued by NWS Pendleton, OR

Home | Current Version | Previous Version | Text Only | Print | Product List | Glossary On
Versions: 1 2 3 4 5 6 7 8 9 10 11 12 13 14 15 16 17 18 19 20 21 22 23 24 25 26 27 28 29 30 31 32 33 34 35 36 37 38 39 40 41 42 43 44 45 46 47 48 49 50
000
ASUS46 KPDT 271510
RWRPDT
PENDLETON REGIONAL WEATHER ROUNDUP
NATIONAL WEATHER SERVICE PENDLETON OREGON
800 AM PDT WED AUG 27 2014

NOTE: FAIR INDICATES FEW OR NO CLOUDS BELOW 12,000 FEET WITH NO
SIGNIFICANT WEATHER AND/OR OBSTRUCTIONS TO VISIBILITY.

# INDICATES UNOFFICIAL STATION AND DATA

WAZ520-271610-
EAST SLOPES OF WASHINGTON CASCADES

CITY            SKY/WX      TMP DP  RH  WIND    PRES   REMARKS
#CLE ELUM HS    N/A         57  54  90  CALM    30.00R
#CLE ELUM 2NW   N/A         63  54  72  CALM    N/A
#CLE ELUM LAKE  N/A         62  53  72  CALM    29.91S
#CLIFFDEL 2NW   N/A         52  50  93  CALM    N/A
#EASTON DOT     N/A         58  54  87  CALM    N/A
#GLENWOOD       N/A         53  52  96  CALM    29.99S
#MANASTASH CYN  N/A         58  51  77  CALM    30.04F
#NELSON         N/A         57  54  90  CALM    29.97S
#NILE           N/A         57  53  86  CALM    29.28S
#PEOH POINT     N/A         60  50  69  SW7     N/A
#RONALD 2NW     N/A         61  53  75  CALM    29.94R
#TEANAWAY 4NE   N/A         55  53  93  CALM    N/A
#TROUT LAKE 1NE N/A         59  55  87  CALM    29.98R
$$

WAZ521-271610-
SIMCOE HIGHLANDS

CITY            SKY/WX      TMP DP  RH  WIND    PRES   REMARKS
#BICKLETON HS   N/A         71  41  34  W7      30.12S
#SATUS PASS DOT N/A         58  43  57  CALM    N/A
#CENTERVILLE 4W N/A         67  52  59  N1      29.81R
#CENTERVILLE 1SWN/A         58  43  57  CALM    29.96R
#GOLDENDALE 1NE N/A         60  40  47  CALM    N/A
#GOLDENDALE 1S  N/A         61  47  60  CALM    30.02R
#GOLDENDALE 5WNWN/A         62  49  62  CALM    29.96R
#GOODNOE HILLS  N/A         71  54  55  SW9     29.96R
#LYLE 6NE       N/A         67  53  61  CALM    29.93S
$$

WAZ026-271610-
KITTITAS VALLEY

CITY            SKY/WX      TMP DP  RH  WIND    PRES   REMARKS
ELLENSBURG AP   SUNNY       67  54  63  E5      30.04R
#ELLENSBURG CWU N/A         64  55  73  CALM    29.92S
#ELLENSBURG 3NE N/A         63  56  78  CALM    30.03S
#ELLENSBURG     N/A         69  59  70  CALM    N/A
#ELLENSBURG 1E  N/A         56  51  83  CALM    N/A
#KITTITAS 3S    N/A         58  56  93  CALM    29.96S
#THORP 6N       N/A         63  54  72  W1      29.96R
$$

WAZ027-271610-
YAKIMA VALLEY

CITY            SKY/WX      TMP DP  RH  WIND    PRES   REMARKS
SUNNYSIDE AP    SUNNY       61  55  81  CALM    30.00R
YAKIMA AIRPORT  SUNNY       67  56  68  W3      30.02R
YAKIMA-VAGABOND SUNNY       68  50  53  N2      30.03S
#COWICHE 1N     N/A         67  54  63  NW3     30.19S
#DONALD 2NE     N/A         77  54  45  CALM    30.33R
#GRANDVIEW      N/A         64  54  70  CALM    29.97S
#MABTON         N/A         63  57  81  CALM    29.99R
#MOXEE 2E       N/A         66  46  48  CALM    29.94F
#NACHES 2SW     N/A         68  55  63  W5      30.04R
#TERRACE HTS    N/A         61  54  78  CALM    29.93R
#TOPPENISH      N/A         64  56  75  CALM    29.88S
#WAPATO 4NE     N/A         77  54  45  CALM    30.33R
#WEST VALLEY    N/A         64  56  75  CALM    29.95R
#W YAKIMA       N/A         69  55  61  NW3     29.94S
#WHITE SWAN 5E  N/A         62  57  84  CALM    29.97R
#WILEY CITY 3W  N/A         65  61  87  CALM    30.01R
$$

WAZ028-271610-
LOWER COLUMBIA BASIN...WASHINGTON

CITY            SKY/WX      TMP DP  RH  WIND    PRES   REMARKS
HANFORD         SUNNY       68  50  53  SE5     29.98R
PASCO           SUNNY       65  54  68  N3      29.99S
PROSSER AWOS    N/A         66  55  68  SE1     30.02R
RICHLAND AWOS   SUNNY       64  52  65  CALM    29.99S
#BASIN CITY 5SW N/A         69  51  53  E1      30.00R
#BENTON CITY    N/A         67  57  70  CALM    29.87R
#CONNELL 5N     N/A         68  45  44  E2      29.95S
#CONNELL 5NW    N/A         64  47  54  CALM    29.94R
#ELTOPIA 6NW    N/A         65  51  60  E1      28.97R
#KENNEWICK 3S   N/A         70  56  61  CALM    29.96R
#PATERSON       N/A         63  51  65  NE1     29.96S
#PROSSER DOT    N/A         61  54  78  W1      N/A
#PROSSER        N/A         67  49  52  CALM    29.95S
#SAGEMOOR 2W    N/A         69  50  51  CALM    29.82R
#TOUCHET 2S     N/A         60  48  64  CALM    29.96S
#WEST PASCO     N/A         63  53  70  CALM    29.97S
$$

WAZ029-271610-
FOOTHILLS OF THE BLUES...WASHINGTON

CITY            SKY/WX      TMP DP  RH  WIND    PRES   REMARKS
WALLA WALLA AP  SUNNY       77  44  31  E3      30.02R
#COLLEGE PLACE  N/A         66  50  56  CALM    30.00R
#DAYTON SCHOOL  N/A         69  42  37  VRB3    30.02S
#DELANEY DOT    N/A         53  45  74  CALM    N/A
#LOWDEN 2SE     N/A         60  51  72  CALM    29.96R
#PLEASANT VIEW 1N/A         68  43  40  CALM    29.99R
#PRESCOTT       N/A         66  47  50  CALM    29.96S
#SUDBURY        N/A         68  N/A N/A NE5     N/A
#WHITMAN COLLEGEN/A         70  50  49  E1      30.00S
#WAITSBURG 8N   N/A         78  35  21  S3      29.97S
#WALLA WALLA 5E N/A         78  41  27  SW7     N/A
#WALLA WALLA U  N/A         67  52  59  CALM    29.96S
$$

WAZ030-271610-
BLUE MOUNTAINS...WASHINGTON

CITY            SKY/WX      TMP DP  RH  WIND    PRES   REMARKS
$$

ORZ009-041-WAZ024-271610-
COLUMBIA RIVER GORGE

CITY            SKY/WX      TMP DP  RH  WIND    PRES   REMARKS
HOOD RIVER AP   SUNNY       61  52  72  CALM    30.03R
THE DALLES AP   SUNNY       69  53  57  S3      30.00R
#ARLINGTON AIRPON/A         69  53  57  W7      N/A
#ARLINGTON HS   N/A         71  51  49  CALM    29.88R
#MARYHILL       N/A         69  53  57  CALM    N/A
#MARYHILL 2W    N/A         70  56  61  S1      N/A
#MOSIER 1S      N/A         65  48  54  CALM    30.03S
#MURDOCK        N/A         69  58  68  NW12    30.01R

$$

ORZ510-271610-
NORTH CENTRAL OREGON

CITY            SKY/WX      TMP DP  RH  WIND    PRES   REMARKS
#CHENOWITH 1W   N/A         64  53  67  W13     N/A
#COW CYN RST AREN/A         64  43  46  SW3     N/A
#DUFUR 9E       N/A         72  48  43  W1      29.97
#GRASS VALLEY   N/A         67  46  47  S3      N/A
#GRASS VALLEY 1SN/A         66  46  48  S1      29.98S
#KENT DOT       N/A         66  43  43  S3      N/A
#MAUPIN SCHOOL  N/A         62  50  65  CALM    28.92R
#MORO SCHOOL    N/A         70  55  59  CALM    30.06R
#SHANIKO 5WSW   N/A         66  43  43  S7      N/A
#SHANIKO 4NW    N/A         70  40  34  S5      30.14S
#TYGH VALLEY 2NEN/A         62  49  62  CALM    29.99R
#WAPANITIA AIRPON/A         66  50  56  CALM    29.99R
#WASCO DOT      N/A         64  52  65  SW2     N/A
#WASCO 5NE      N/A         72  51  48  SW3     29.96S
$$

ORZ511-271610-
CENTRAL OREGON

CITY            SKY/WX      TMP DP  RH  WIND    PRES   REMARKS
BEND AIRPORT    SUNNY       61  41  48  CALM    30.17R
MADRAS AIRPORT  SUNNY       61  45  56  CALM    30.13R
REDMOND AIRPORT SUNNY       60  37  42  CALM    30.14R
#BEND 6E        N/A         64  42  45  CALM    29.95F
#BEND-AWBREY    N/A         60  45  58  N5      29.99R
#BEND-KIM LN    N/A         59  46  62  SW7     30.13R
#CROOKED RVR RANN/A         61  43  51  SW1     29.99S
#CULVER         N/A         61  48  62  CALM    30.08R
#LAKE BILLY CHINN/A         60  32  35  W1      30.16S
#POWELL BUTTE   N/A         72  48  43  N1      29.78S
#PRINEVILLE 3N  N/A         57  48  72  CALM    29.99S
#WARM SPRINGS   N/A         61  49  65  CALM    30.06S


ORZ509-271610-
EAST SLOPES OF OREGON CASCADES

CITY            SKY/WX      TMP DP  RH  WIND    PRES   REMARKS
#BLUE BOX PASS  N/A         62   8  12  SW3     N/A
#BLACK BUTTE RNCN/A         49  45  86  CALM    30.01S
#CAMP SHERMAN   N/A         42  38  86  CALM    30.10R
#LA PINE DOT    N/A         48  36  63  CALM    N/A
#LA PINE 4NW    N/A         47  39  74  CALM    30.11S
#LAVA BUTTE DOT N/A         54  44  69  SE2     N/A
#SISTERS AIRPOR N/A         55  47  74  CALM    30.11S
#SISTERS ODOT   N/A         52  N/A N/A CALM    N/A
#SISTERS 3N     N/A         49  37  63  CALM    N/A
#SUNRIVER       N/A         47  40  76  S3      29.96R
#SUNRIVER AP    N/A         46  40  79  CALM    30.03R
#SUTTLE LK DOT  N/A         50  46  86  CALM    N/A
#TUMALO 3W      N/A         67  45  45  CALM    29.86R
#WANOGA BUTTE D N/A         63  37  38  W2      N/A

$$

ORZ044-271610-
LOWER COLUMBIA BASIN...OREGON

CITY            SKY/WX      TMP DP  RH  WIND    PRES   REMARKS
HERMISTON       SUNNY       65  47  52  E3      30.00S
#BOARDMAN SCHOOLN/A         63  54  72  CALM    29.99S
#BOARDMAN 3W    N/A         67  58  73  S1      29.71S
#BOARDMAN 8SW   N/A         68  49  51  NW1     29.97R
#ECHO 8SW       N/A         68  49  51  CALM    29.98R
#IONE SCHOOL    N/A         66  47  50  CALM    30.01S
#IRRIGON 4NW    N/A         63  54  72  E3      N/A
#UMATILLA SCHOOLN/A         63  54  72  SE2     30.03S
#UMATILLA       N/A         66  48  52  CALM    29.97S
$$

ORZ507-271610-
NORTHERN FOOTHILLS OF THE BLUES

CITY            SKY/WX      TMP DP  RH  WIND    PRES   REMARKS
PENDLETON AIRPT SUNNY       68  43  40  SE6     30.03S
#ADAMS 3WNW     N/A         69  47  45  CALM    29.98S
#ATHENA         N/A         72  46  39  CALM    29.99R
#HELIX SCHOOL   N/A         59  45  60  CALM    29.97F
#HELIX 3N       N/A         72  42  34  S5      30.01S
#HOLDMAN 5SE    N/A         71  45  39  CALM    30.03S
#HOLDMAN 6E     N/A         70  43  38  CALM    29.78S
#M-F GROVE ELEM N/A         74  42  32  CALM    29.99S
#M-FREEWATER 5SEN/A         70  48  46  E7      30.01S
#PENDLETON DNTN N/A         54  37  52  CALM    29.98S
#PDT SUNRIDGE   N/A         63  46  54  CALM    30.04S
#PENDLETON 7NW  N/A         66  48  52  E5      N/A
#PILOT ROCK     N/A         71  43  36  S5      30.06S
#TUTUILLA       N/A         66  51  58  CALM    29.93S
#UMAPINE 2E     N/A         66  55  68  CALM    29.97R
#WESTON SCHOOL  N/A         74  38  27  W3      30.00S

$$

ORZ508-271610-
SOUTHERN FOOTHILLS OF THE BLUES

CITY            SKY/WX      TMP DP  RH  WIND    PRES   REMARKS
LEXINGTON       SUNNY       73  45  37  E9      30.06R
#AJAX           N/A         70  38  31  S5      30.00R
#CONDON SCHOOL  N/A         64  42  45  CALM    30.06S
#CONDON 5W      N/A         68  39  35  W5      30.09R
#FOSSIL SCHOOL  N/A         60  44  55  CALM    30.08R
#HEPPNER EOC    N/A         68  48  49  E8      29.93S
#HEPPNER 4NE    N/A         75  45  34  CALM    29.96S
#LEXINGTON 2SE  N/A         68  50  53  SE6     30.02R
#MIKKALO        N/A         77  46  33  SE1     30.03F
#OLEX 4N        N/A         71  47  42  SW1     30.00R
#RUGGS 5NE      N/A         70  46  42  SE2     30.27S
#RUGGS 2SW      N/A         71  42  35  SW8     30.02R

$$

ORZ502-503-271610-
BLUE MOUNTAINS

CITY            SKY/WX      TMP DP  RH  WIND    PRES   REMARKS
MEACHAM         SUNNY       51  42  71  CALM    30.15F
#BATTLE MTN DOT N/A         51  45  80  S3      N/A
#HARDMAN 10S    N/A         60  39  46  S1      30.22R
#HEPPNER 15SE   N/A         58  52  80  CALM    30.09R
#LADD CYN SMT   N/A         57  38  49  E2      N/A
#LADD CREEK ODOTN/A         49  42  77  SW2     N/A
#LONG CREEK HS  N/A         56  45  66  CALM    N/A
#N POWDER DOT   N/A         51  45  80  W2      N/A
#PIKES PEAK     N/A         72  41  33  S6      27.99S
#TOLLGATE       N/A         61  45  56  CALM    30.11S
#TOLLGATE 9W    N/A         62  40  44  S3      N/A
#TROY SCHOOL    N/A         58  49  72  CALM    29.92S
#UKIAH          N/A         43  40  89  CALM    30.14S
#WESTON 4E      N/A         68  43  40  E6      29.90S
$$

ORZ505-271610-
JOHN DAY BASIN

CITY            SKY/WX      TMP DP  RH  WIND    PRES   REMARKS
JOHN DAY        SUNNY       59  37  44  SE9     30.19R
#JOHN DAY KJDY  N/A         53  39  59  NE2     30.22F
#MONUMENT HS    N/A         55  39  55  CALM    30.14S
#MT. VERNON 5SE N/A         64  39  40  CALM    30.14S
#WINLOCK        N/A         69  46  44  CALM    30.21S
$$

ORZ506-271610-
OCHOCO AND JOHN DAY HIGHLANDS

CITY            SKY/WX      TMP DP  RH  WIND    PRES   REMARKS
#BUCK CREEK DOT N/A         66  42  42  SE2     N/A
#HORSE RIDGE DO N/A         49  29  46  SW9     N/A
#KEYES SMT DOT  N/A         59  38  45  E3      N/A
#PAULINA SCHOOL N/A         49  38  66  CALM    30.17R
#PINE MTN OBS   N/A         63  39  41  S1      N/A
#PRAIRIE CITY   N/A         52  42  69  CALM    30.19F
#SENECA 9NW     N/A         37  31  79  CALM    30.08S
$$

ORZ049-271610-
GRANDE RONDE VALLEY

CITY            SKY/WX      TMP DP  RH  WIND    PRES   REMARKS
LA GRANDE       SUNNY       55  37  51  CALM    30.14S
#COVE           N/A         57  47  69  CALM    30.06R
#COVE SCHOOL    N/A         60  46  60  CALM    30.12R
#COVE 6NW       N/A         47  45  93  CALM    30.11R
#ELGIN 3N       N/A         53  44  71  CALM    29.87R
#ELGIN 1E       N/A         47  42  83  CALM    N/A
#IMBLER SCHOOL  N/A         56  46  69  NE1     30.10R
#ISLAND CITY 4N N/A         54  47  77  CALM    30.00R
#LADD CYN DOT   N/A         58  43  57  NE2     N/A
#LA GRANDE ELEM N/A         61  46  58  CALM    30.12S
#UNION 1S       N/A         56  47  72  CALM    29.96S
$$

ORZ050-271610-
WALLOWA COUNTY

CITY            SKY/WX      TMP DP  RH  WIND    PRES   REMARKS
#ENTERPRISE AP  N/A         54  42  64  CALM    30.10R
#ENTERPRISE HS  N/A         51  46  83  CALM    30.18R
#IMNAHA SCHOOL  N/A         55  46  72  CALM    30.08F
#IMNAHA 10S     N/A         54  43  66  SW1     30.13R
#JOSEPH 3N      N/A         51  46  83  CALM    30.18R
#JOSEPH 3W      N/A         67  46  47  CALM    30.02S
#MT HOWARD 8000 N/A         54  36  50  S1      30.41R
#PROMISE 1S     N/A         60  46  60  CALM    30.13R
#SHEEP RDG 7000 N/A         60  38  44  CALM    30.01S
#WALLOWA SCHOOL N/A         51  46  83  CALM    30.99R



$$



USA.gov is the U.S. government's official web portal to all federal, state and local government web resources and services.